| time (UTC) | temp F | wind direction | speed MPH | gust MPH | rain 1hr in | rain 24hr in | rain mn in | humidity % | barometer mb |
| 20260902142544 | 67 | 231 | 6.0 | 12.0 | 0.00 | 0.01 | 0.01 | 77 | 1019.6 |
| 20260902142044 | 67 | 204 | 5.0 | 15.0 | 0.00 | 0.01 | 0.01 | 77 | 1019.6 |
| 20260902141600 | 67 | 217 | 4.0 | 17.0 | 0.00 | 0.01 | 0.01 | 77 | 1019.7 |
| 20260902141046 | 67 | 198 | 4.0 | 18.0 | 0.00 | 0.01 | 0.01 | 77 | 1019.7 |
| 20260902140543 | 67 | 197 | 8.0 | 18.0 | 0.00 | 0.01 | 0.01 | 76 | 1019.7 |
| 20260902140106 | 67 | 197 | 10.0 | 18.0 | 0.00 | 0.01 | 0.01 | 76 | 1019.8 |
| 20260902135543 | 67 | 223 | 7.0 | 18.0 | 0.00 | 0.01 | 0.01 | 76 | 1019.8 |
| 20260902135044 | 67 | 200 | 7.0 | 18.0 | 0.00 | 0.01 | 0.01 | 75 | 1019.8 |
| 20260902134606 | 67 | 215 | 7.0 | 17.0 | 0.00 | 0.01 | 0.01 | 75 | 1019.7 |
| 20260902134043 | 67 | 201 | 5.0 | 16.0 | 0.00 | 0.01 | 0.01 | 75 | 1019.8 |
| 20260902133543 | 67 | 194 | 5.0 | 26.0 | 0.00 | 0.01 | 0.01 | 74 | 1019.9 |
| 20260902133109 | 67 | 195 | 7.0 | 26.0 | 0.00 | 0.01 | 0.01 | 74 | 1019.9 |
| 20260902132546 | 66 | 206 | 6.0 | 20.0 | 0.00 | 0.01 | 0.01 | 74 | 1019.9 |
| 20260902132043 | 66 | 196 | 3.0 | 12.0 | 0.00 | 0.01 | 0.01 | 74 | 1020.2 |
| 20260902131558 | 66 | 224 | 5.0 | 14.0 | 0.00 | 0.01 | 0.01 | 74 | 1020.1 |
| 20260902131044 | 66 | 196 | 4.0 | 23.0 | 0.00 | 0.01 | 0.01 | 74 | 1020.2 |
| 20260902130543 | 66 | 177 | 6.0 | 23.0 | 0.00 | 0.01 | 0.01 | 73 | 1020.3 |
| 20260902130105 | 66 | 207 | 9.0 | 23.0 | 0.00 | 0.01 | 0.01 | 73 | 1020.3 |
| 20260902125544 | 66 | 224 | 7.0 | 15.0 | 0.00 | 0.01 | 0.01 | 74 | 1020.4 |
| 20260902125044 | 66 | 244 | 6.0 | 14.0 | 0.00 | 0.01 | 0.01 | 75 | 1020.4 |
| 20260902124605 | 66 | 217 | 4.0 | 11.0 | 0.00 | 0.01 | 0.01 | 76 | 1020.5 |
| 20260902124045 | 66 | 189 | 3.0 | 10.0 | 0.00 | 0.01 | 0.01 | 76 | 1020.5 |
| 20260902123543 | 66 | 224 | 3.0 | 12.0 | 0.00 | 0.01 | 0.01 | 76 | 1020.5 |
| 20260902123120 | 66 | 190 | 4.0 | 13.0 | 0.00 | 0.01 | 0.01 | 76 | 1020.5 |
| 20260902122544 | 66 | 236 | 6.0 | 13.0 | 0.00 | 0.01 | 0.01 | 76 | 1020.6 |
| 20260902122044 | 66 | 194 | 4.0 | 14.0 | 0.00 | 0.01 | 0.01 | 77 | 1020.5 |
| 20260902121601 | 66 | 197 | 4.0 | 14.0 | 0.00 | 0.01 | 0.01 | 78 | 1020.6 |
| 20260902121044 | 66 | 244 | 4.0 | 13.0 | 0.00 | 0.01 | 0.01 | 78 | 1020.7 |
| 20260902120544 | 66 | 213 | 5.0 | 13.0 | 0.00 | 0.01 | 0.01 | 79 | 1020.6 |
| 20260902115543 | 65 | 124 | 4.0 | 14.0 | 0.00 | 0.01 | 0.01 | 81 | 1020.6 |
| 20260902115044 | 65 | 211 | 4.0 | 14.0 | 0.00 | 0.01 | 0.01 | 82 | 1020.7 |
| 20260902114606 | 65 | 225 | 6.0 | 13.0 | 0.00 | 0.01 | 0.01 | 83 | 1020.8 |
| 20260902114046 | 64 | 192 | 3.0 | 10.0 | 0.00 | 0.01 | 0.01 | 85 | 1020.8 |
| 20260902113545 | 64 | 236 | 5.0 | 11.0 | 0.00 | 0.01 | 0.01 | 85 | 1021.0 |
| 20260902113116 | 63 | 188 | 4.0 | 11.0 | 0.00 | 0.01 | 0.01 | 87 | 1020.8 |
| 20260902112544 | 63 | 190 | 4.0 | 11.0 | 0.00 | 0.01 | 0.01 | 88 | 1021.0 |
| 20260902112044 | 63 | 198 | 5.0 | 12.0 | 0.00 | 0.01 | 0.01 | 89 | 1021.3 |
| 20260902111559 | 63 | 205 | 4.0 | 12.0 | 0.00 | 0.01 | 0.01 | 90 | 1021.1 |
| 20260902111045 | 63 | 213 | 3.0 | 11.0 | 0.00 | 0.01 | 0.01 | 90 | 1021.1 |
| 20260902110543 | 63 | 240 | 2.0 | 5.0 | 0.00 | 0.01 | 0.01 | 91 | 1021.3 |
| 20260902110101 | 63 | 131 | 1.0 | 9.0 | 0.00 | 0.01 | 0.01 | 91 | 1021.2 |
| 20260902105543 | 63 | 194 | 2.0 | 9.0 | 0.00 | 0.01 | 0.01 | 91 | 1021.3 |
| 20260902105047 | 63 | 175 | 1.0 | 7.0 | 0.00 | 0.01 | 0.01 | 92 | 1021.3 |
| 20260902104600 | 63 | 144 | 2.0 | 6.0 | 0.00 | 0.01 | 0.01 | 92 | 1021.5 |
| 20260902104044 | 63 | 0 | 1.0 | 6.0 | 0.01 | 0.01 | 0.01 | 92 | 1021.4 |
| 20260902103543 | 63 | 0 | 0.0 | 4.0 | 0.01 | 0.01 | 0.01 | 92 | 1021.5 |
| 20260902103109 | 63 | 0 | 1.0 | 6.0 | 0.01 | 0.01 | 0.01 | 92 | 1021.5 |
| 20260902102547 | 62 | 0 | 1.0 | 6.0 | 0.01 | 0.01 | 0.01 | 91 | 1021.6 |
| 20260902102044 | 62 | 208 | 2.0 | 6.0 | 0.01 | 0.01 | 0.01 | 91 | 1021.7 |
| 20260902101559 | 62 | 0 | 0.0 | 5.0 | 0.00 | 0.00 | 0.00 | 91 | 1021.7 |
| 20260902101047 | 62 | 0 | 0.0 | 5.0 | 0.00 | 0.00 | 0.00 | 91 | 1021.7 |
| 20260902100544 | 62 | 209 | 1.0 | 7.0 | 0.00 | 0.00 | 0.00 | 90 | 1021.7 |
| 20260902100119 | 61 | 0 | 2.0 | 7.0 | 0.00 | 0.00 | 0.00 | 90 | 1021.8 |
| 20260902095546 | 62 | 213 | 2.0 | 7.0 | 0.00 | 0.00 | 0.00 | 89 | 1021.9 |
| 20260902095044 | 62 | 188 | 3.0 | 10.0 | 0.00 | 0.00 | 0.00 | 88 | 1021.9 |
| 20260902094604 | 62 | 215 | 4.0 | 11.0 | 0.00 | 0.00 | 0.00 | 88 | 1021.7 |
| 20260902094044 | 62 | 217 | 3.0 | 13.0 | 0.00 | 0.00 | 0.00 | 87 | 1021.9 |
| 20260902093543 | 63 | 219 | 6.0 | 13.0 | 0.00 | 0.00 | 0.00 | 86 | 1021.8 |
| 20260902093103 | 63 | 223 | 5.0 | 12.0 | 0.00 | 0.00 | 0.00 | 85 | 1021.7 |
| 20260902092543 | 64 | 236 | 4.0 | 11.0 | 0.00 | 0.00 | 0.00 | 84 | 1021.7 |
| 20260902092047 | 64 | 207 | 4.0 | 11.0 | 0.00 | 0.00 | 0.00 | 83 | 1021.7 |
| 20260902091609 | 64 | 207 | 5.0 | 12.0 | 0.00 | 0.00 | 0.00 | 83 | 1021.7 |
| 20260902091043 | 64 | 205 | 3.0 | 12.0 | 0.00 | 0.00 | 0.00 | 84 | 1021.8 |
| 20260902090543 | 64 | 167 | 3.0 | 10.0 | 0.00 | 0.00 | 0.00 | 85 | 1021.8 |
| 20260902085543 | 63 | 250 | 3.0 | 9.0 | 0.00 | 0.00 | 0.00 | 85 | 1021.7 |
| 20260902085045 | 63 | 217 | 3.0 | 9.0 | 0.00 | 0.00 | 0.00 | 85 | 1021.7 |
| 20260902084602 | 63 | 212 | 1.0 | 7.0 | 0.00 | 0.00 | 0.00 | 86 | 1021.8 |
| 20260902084044 | 63 | 210 | 1.0 | 7.0 | 0.00 | 0.00 | 0.00 | 86 | 1021.6 |
| 20260902083543 | 63 | 208 | 3.0 | 7.0 | 0.00 | 0.00 | 0.00 | 86 | 1021.7 |
| 20260902083100 | 63 | 215 | 2.0 | 6.0 | 0.00 | 0.00 | 0.00 | 86 | 1021.6 |
| 20260902082543 | 63 | 186 | 2.0 | 6.0 | 0.00 | 0.00 | 0.00 | 86 | 1021.7 |
| 20260902082043 | 63 | 220 | 2.0 | 7.0 | 0.00 | 0.00 | 0.00 | 87 | 1021.6 |
| 20260902081556 | 62 | 244 | 2.0 | 7.0 | 0.00 | 0.00 | 0.00 | 87 | 1021.5 |
| 20260902081044 | 62 | 211 | 1.0 | 5.0 | 0.00 | 0.00 | 0.00 | 87 | 1021.4 |
| 20260902080544 | 62 | 252 | 2.0 | 5.0 | 0.00 | 0.00 | 0.00 | 87 | 1021.4 |
| 20260902080112 | 62 | 208 | 2.0 | 7.0 | 0.00 | 0.00 | 0.00 | 87 | 1021.4 |
| 20260902075544 | 62 | 0 | 3.0 | 8.0 | 0.00 | 0.00 | 0.00 | 87 | 1021.3 |
| 20260902075044 | 62 | 250 | 3.0 | 8.0 | 0.00 | 0.00 | 0.00 | 87 | 1021.4 |
| 20260902074621 | 62 | 216 | 2.0 | 8.0 | 0.00 | 0.00 | 0.00 | 88 | 1021.3 |
| 20260902074046 | 62 | 244 | 1.0 | 7.0 | 0.00 | 0.00 | 0.00 | 88 | 1021.4 |
| 20260902073543 | 61 | 225 | 2.0 | 7.0 | 0.00 | 0.00 | 0.00 | 88 | 1021.4 |
| 20260902073110 | 61 | 208 | 2.0 | 6.0 | 0.00 | 0.00 | 0.00 | 88 | 1021.2 |
| 20260902072545 | 61 | 238 | 1.0 | 6.0 | 0.00 | 0.00 | 0.00 | 89 | 1021.2 |
| 20260902072043 | 61 | 0 | 2.0 | 6.0 | 0.00 | 0.00 | 0.00 | 88 | 1021.2 |
| 20260902071619 | 61 | 205 | 1.0 | 4.0 | 0.00 | 0.00 | 0.00 | 89 | 1021.4 |
| 20260902071046 | 61 | 244 | 1.0 | 4.0 | 0.00 | 0.00 | 0.00 | 89 | 1021.4 |
| 20260902070542 | 60 | 235 | 2.0 | 3.0 | 0.00 | 0.00 | 0.00 | 88 | 1021.4 |
| 20260902070105 | 60 | 208 | 0.0 | 3.0 | 0.00 | 0.00 | 0.00 | 88 | 1021.4 |
| 20260902065545 | 60 | 207 | 1.0 | 4.0 | 0.00 | 0.00 | 0.00 | 88 | 1021.2 |
| 20260902065044 | 60 | 203 | 1.0 | 5.0 | 0.00 | 0.00 | 0.00 | 88 | 1021.3 |
| 20260902064609 | 60 | 202 | 1.0 | 5.0 | 0.00 | 0.00 | 0.00 | 89 | 1021.4 |
| 20260902064043 | 60 | 178 | 1.0 | 4.0 | 0.00 | 0.00 | 0.00 | 89 | 1021.3 |
| 20260902063544 | 60 | 0 | 0.0 | 3.0 | 0.00 | 0.00 | 0.00 | 89 | 1021.3 |
| 20260902063101 | 59 | 0 | 0.0 | 3.0 | 0.00 | 0.00 | 0.00 | 89 | 1021.2 |
| 20260902062543 | 59 | 0 | 0.0 | 3.0 | 0.00 | 0.00 | 0.00 | 89 | 1021.2 |
| 20260902062047 | 59 | 167 | 0.0 | 3.0 | 0.00 | 0.00 | 0.00 | 88 | 1021.1 |
| 20260902061611 | 59 | 0 | 0.0 | 4.0 | 0.00 | 0.00 | 0.00 | 88 | 1021.0 |
| 20260902061044 | 59 | 167 | 0.0 | 4.0 | 0.00 | 0.00 | 0.00 | 88 | 1021.0 |
| 20260902060545 | 59 | 171 | 0.0 | 4.0 | 0.00 | 0.00 | 0.00 | 88 | 1020.7 |
| 20260902055543 | 59 | 190 | 0.0 | 4.0 | 0.00 | 0.00 | 0.00 | 88 | 1021.0 |
| 20260902055043 | 59 | 0 | 0.0 | 2.0 | 0.00 | 0.00 | 0.00 | 88 | 1021.3 |
| 20260902054603 | 59 | 0 | 0.0 | 2.0 | 0.00 | 0.00 | 0.00 | 87 | 1021.2 |
| 20260902054043 | 59 | 0 | 0.0 | 2.0 | 0.00 | 0.00 | 0.00 | 87 | 1021.1 |
| 20260902053544 | 59 | 0 | 0.0 | 3.0 | 0.00 | 0.00 | 0.00 | 87 | 1021.1 |
| 20260902053102 | 59 | 0 | 0.0 | 3.0 | 0.00 | 0.00 | 0.00 | 87 | 1021.0 |
| 20260902052542 | 59 | 0 | 0.0 | 3.0 | 0.00 | 0.00 | 0.00 | 87 | 1020.8 |
| 20260902052042 | 60 | 0 | 0.0 | 4.0 | 0.00 | 0.00 | 0.00 | 87 | 1020.9 |
| 20260902051600 | 60 | 0 | 0.0 | 4.0 | 0.00 | 0.00 | 0.00 | 87 | 1020.8 |
| 20260902051043 | 60 | 204 | 0.0 | 4.0 | 0.00 | 0.00 | 0.00 | 87 | 1020.9 |
| 20260902050546 | 60 | 0 | 0.0 | 4.0 | 0.00 | 0.00 | 0.00 | 87 | 1021.0 |
| 20260902050104 | 60 | 0 | 0.0 | 4.0 | 0.00 | 0.00 | 0.00 | 86 | 1021.1 |
| 20260902045543 | 60 | 0 | 0.0 | 4.0 | 0.00 | 0.00 | 0.00 | 86 | 1021.0 |
| 20260902045043 | 60 | 214 | 0.0 | 4.0 | 0.00 | 0.00 | 0.00 | 86 | 1021.0 |
| 20260902044604 | 60 | 210 | 0.0 | 4.0 | 0.00 | 0.00 | 0.00 | 86 | 1021.1 |
| 20260902044043 | 60 | 0 | 1.0 | 4.0 | 0.00 | 0.00 | 0.00 | 86 | 1021.0 |
| 20260902043545 | 60 | 207 | 1.0 | 4.0 | 0.00 | 0.00 | 0.00 | 86 | 1021.1 |
| 20260902043111 | 60 | 207 | 1.0 | 6.0 | 0.00 | 0.00 | 0.00 | 86 | 1021.1 |
| 20260902042545 | 60 | 209 | 1.0 | 6.0 | 0.00 | 0.00 | 0.00 | 86 | 1021.2 |
| 20260902042044 | 60 | 212 | 1.0 | 4.0 | 0.00 | 0.00 | 0.00 | 86 | 1021.1 |
| 20260902041603 | 60 | 225 | 1.0 | 4.0 | 0.00 | 0.00 | 0.00 | 85 | 1021.1 |
| 20260902041043 | 60 | 219 | 1.0 | 4.0 | 0.00 | 0.00 | 0.00 | 85 | 1021.0 |
| 20260902040543 | 60 | 218 | 1.0 | 4.0 | 0.00 | 0.00 | 0.00 | 85 | 1021.0 |
| 20260902040104 | 60 | 0 | 1.0 | 4.0 | 0.00 | 0.00 | 0.00 | 85 | 1021.2 |
| 20260902035545 | 60 | 213 | 1.0 | 4.0 | 0.00 | 0.00 | 0.00 | 85 | 1021.1 |
| 20260902035043 | 61 | 212 | 1.0 | 5.0 | 0.00 | 0.00 | 0.00 | 85 | 1021.1 |
| 20260902034557 | 61 | 209 | 2.0 | 5.0 | 0.00 | 0.00 | 0.00 | 84 | 1021.1 |
| 20260902034046 | 61 | 210 | 2.0 | 5.0 | 0.00 | 0.00 | 0.00 | 84 | 1021.1 |
| 20260902033543 | 61 | 222 | 1.0 | 5.0 | 0.00 | 0.00 | 0.00 | 84 | 1021.2 |
| 20260902033100 | 61 | 219 | 2.0 | 5.0 | 0.00 | 0.00 | 0.00 | 84 | 1021.2 |
| 20260902032544 | 61 | 215 | 2.0 | 5.0 | 0.00 | 0.00 | 0.00 | 84 | 1021.3 |
| 20260902032043 | 61 | 213 | 1.0 | 4.0 | 0.00 | 0.00 | 0.00 | 84 | 1021.3 |
| 20260902031604 | 61 | 234 | 1.0 | 4.0 | 0.00 | 0.00 | 0.00 | 84 | 1021.3 |
| 20260902031045 | 61 | 255 | 1.0 | 4.0 | 0.00 | 0.00 | 0.00 | 84 | 1021.3 |
| 20260902030547 | 61 | 0 | 2.0 | 4.0 | 0.00 | 0.00 | 0.00 | 84 | 1021.3 |
| 20260902030058 | 61 | 213 | 1.0 | 4.0 | 0.00 | 0.00 | 0.00 | 84 | 1021.1 |
| 20260902025541 | 61 | 215 | 2.0 | 4.0 | 0.00 | 0.00 | 0.00 | 84 | 1021.3 |
| 20260902025043 | 61 | 220 | 2.0 | 4.0 | 0.00 | 0.00 | 0.00 | 83 | 1021.3 |
| 20260902024603 | 61 | 0 | 2.0 | 4.0 | 0.00 | 0.00 | 0.00 | 83 | 1021.3 |
| 20260902024044 | 61 | 0 | 2.0 | 5.0 | 0.00 | 0.00 | 0.00 | 83 | 1021.2 |
| 20260902023543 | 61 | 213 | 2.0 | 5.0 | 0.00 | 0.00 | 0.00 | 83 | 1021.4 |
| 20260902023105 | 61 | 0 | 1.0 | 4.0 | 0.00 | 0.00 | 0.00 | 83 | 1021.2 |
| 20260902022544 | 61 | 207 | 2.0 | 4.0 | 0.00 | 0.00 | 0.00 | 83 | 1021.3 |
| 20260902022044 | 61 | 213 | 0.0 | 2.0 | 0.00 | 0.00 | 0.00 | 83 | 1021.4 |
| 20260902021605 | 61 | 0 | 0.0 | 4.0 | 0.00 | 0.00 | 0.00 | 83 | 1021.4 |
| 20260902021043 | 61 | 213 | 0.0 | 4.0 | 0.00 | 0.00 | 0.00 | 83 | 1021.3 |
| 20260902020543 | 61 | 213 | 1.0 | 4.0 | 0.00 | 0.00 | 0.00 | 83 | 1021.2 |
| 20260902020100 | 61 | 0 | 0.0 | 4.0 | 0.00 | 0.00 | 0.00 | 83 | 1021.3 |
| 20260902015548 | 61 | 209 | 1.0 | 4.0 | 0.00 | 0.00 | 0.00 | 83 | 1021.3 |
| 20260902015043 | 61 | 0 | 0.0 | 3.0 | 0.00 | 0.00 | 0.00 | 83 | 1021.4 |
| 20260902014558 | 61 | 238 | 1.0 | 3.0 | 0.00 | 0.00 | 0.00 | 83 | 1021.4 |
| 20260902014043 | 61 | 244 | 0.0 | 3.0 | 0.00 | 0.00 | 0.00 | 83 | 1021.5 |
| 20260902013543 | 61 | 0 | 0.0 | 3.0 | 0.00 | 0.00 | 0.00 | 83 | 1021.5 |
| 20260902013059 | 61 | 244 | 1.0 | 4.0 | 0.00 | 0.00 | 0.00 | 83 | 1021.6 |
| 20260902012544 | 61 | 0 | 1.0 | 4.0 | 0.00 | 0.00 | 0.00 | 83 | 1021.6 |
| 20260902012043 | 61 | 245 | 1.0 | 4.0 | 0.00 | 0.00 | 0.00 | 82 | 1021.6 |
| 20260902011601 | 61 | 240 | 1.0 | 4.0 | 0.00 | 0.00 | 0.00 | 82 | 1021.7 |
| 20260902011043 | 61 | 242 | 1.0 | 4.0 | 0.00 | 0.00 | 0.00 | 82 | 1021.9 |
| 20260902010546 | 61 | 0 | 2.0 | 5.0 | 0.00 | 0.00 | 0.00 | 82 | 1021.8 |
| 20260902010121 | 61 | 244 | 2.0 | 5.0 | 0.00 | 0.00 | 0.00 | 82 | 1021.8 |
| 20260902005545 | 61 | 238 | 1.0 | 4.0 | 0.00 | 0.00 | 0.00 | 82 | 1021.8 |
| 20260902005046 | 61 | 237 | 1.0 | 4.0 | 0.00 | 0.00 | 0.00 | 82 | 1021.8 |
| 20260902004603 | 61 | 237 | 2.0 | 4.0 | 0.00 | 0.00 | 0.00 | 82 | 1021.9 |
| 20260902004044 | 61 | 238 | 1.0 | 4.0 | 0.00 | 0.00 | 0.00 | 82 | 1021.8 |
| 20260902003543 | 61 | 236 | 2.0 | 4.0 | 0.00 | 0.00 | 0.00 | 81 | 1021.9 |
| 20260902003101 | 62 | 242 | 0.0 | 2.0 | 0.00 | 0.00 | 0.00 | 81 | 1021.8 |
| 20260902002547 | 62 | 0 | 0.0 | 3.0 | 0.00 | 0.00 | 0.00 | 81 | 1021.7 |
| 20260902002042 | 62 | 0 | 0.0 | 3.0 | 0.00 | 0.00 | 0.00 | 81 | 1021.8 |
| 20260902001602 | 62 | 243 | 1.0 | 4.0 | 0.00 | 0.00 | 0.00 | 80 | 1021.8 |
| 20260902001042 | 62 | 244 | 1.0 | 5.0 | 0.00 | 0.00 | 0.00 | 80 | 1021.9 |
| 20260902000542 | 62 | 250 | 2.0 | 5.0 | 0.00 | 0.00 | 0.00 | 80 | 1022.0 |
| 20260901235544 | 62 | 201 | 0.0 | 4.0 | 0.00 | 0.00 | 0.00 | 80 | 1022.0 |
| 20260901235043 | 62 | 200 | 1.0 | 4.0 | 0.00 | 0.00 | 0.00 | 80 | 1022.0 |
| 20260901234601 | 62 | 242 | 1.0 | 3.0 | 0.00 | 0.00 | 0.00 | 79 | 1022.0 |
| 20260901234043 | 62 | 0 | 1.0 | 3.0 | 0.00 | 0.00 | 0.00 | 79 | 1022.1 |
| 20260901233543 | 62 | 242 | 0.0 | 4.0 | 0.00 | 0.00 | 0.00 | 79 | 1022.0 |
| 20260901233105 | 62 | 244 | 1.0 | 4.0 | 0.00 | 0.00 | 0.00 | 79 | 1022.0 |
| 20260901232543 | 62 | 0 | 1.0 | 4.0 | 0.00 | 0.00 | 0.00 | 79 | 1022.1 |
| 20260901232044 | 62 | 218 | 2.0 | 4.0 | 0.00 | 0.00 | 0.00 | 79 | 1022.1 |
| 20260901231602 | 62 | 240 | 2.0 | 4.0 | 0.00 | 0.00 | 0.00 | 79 | 1022.1 |
| 20260901231043 | 62 | 229 | 1.0 | 4.0 | 0.00 | 0.00 | 0.00 | 79 | 1022.1 |
| 20260901230543 | 62 | 214 | 2.0 | 4.0 | 0.00 | 0.00 | 0.00 | 79 | 1022.1 |
| 20260901230105 | 62 | 0 | 1.0 | 4.0 | 0.00 | 0.00 | 0.00 | 79 | 1022.1 |
| 20260901225543 | 62 | 213 | 2.0 | 4.0 | 0.00 | 0.00 | 0.00 | 79 | 1022.0 |
| 20260901225043 | 62 | 251 | 1.0 | 4.0 | 0.00 | 0.00 | 0.00 | 79 | 1021.9 |
| 20260901224603 | 62 | 233 | 0.0 | 4.0 | 0.00 | 0.00 | 0.00 | 79 | 1021.9 |
| 20260901224042 | 62 | 233 | 1.0 | 5.0 | 0.00 | 0.00 | 0.00 | 79 | 1022.0 |
| 20260901223543 | 62 | 236 | 2.0 | 6.0 | 0.00 | 0.00 | 0.00 | 79 | 1022.2 |
| 20260901223059 | 62 | 254 | 2.0 | 7.0 | 0.00 | 0.00 | 0.00 | 79 | 1022.1 |
| 20260901222546 | 62 | 228 | 2.0 | 7.0 | 0.00 | 0.00 | 0.00 | 79 | 1022.1 |
| 20260901222043 | 62 | 236 | 4.0 | 7.0 | 0.00 | 0.00 | 0.00 | 79 | 1022.2 |
| 20260901221624 | 62 | 242 | 3.0 | 7.0 | 0.00 | 0.00 | 0.00 | 79 | 1022.2 |
| 20260901221042 | 63 | 209 | 1.0 | 5.0 | 0.00 | 0.00 | 0.00 | 78 | 1022.1 |
| 20260901220548 | 63 | 253 | 2.0 | 5.0 | 0.00 | 0.00 | 0.00 | 78 | 1022.1 |
| 20260901220107 | 63 | 237 | 2.0 | 5.0 | 0.00 | 0.00 | 0.00 | 78 | 1022.1 |
| 20260901215543 | 63 | 239 | 1.0 | 6.0 | 0.00 | 0.00 | 0.00 | 78 | 1022.1 |
| 20260901215043 | 63 | 207 | 2.0 | 6.0 | 0.00 | 0.00 | 0.00 | 77 | 1022.2 |
| 20260901214600 | 63 | 250 | 1.0 | 5.0 | 0.00 | 0.00 | 0.00 | 77 | 1022.2 |
| 20260901214042 | 63 | 263 | 1.0 | 5.0 | 0.00 | 0.00 | 0.00 | 77 | 1022.2 |
| 20260901213546 | 63 | 233 | 2.0 | 4.0 | 0.00 | 0.00 | 0.00 | 77 | 1022.2 |
| 20260901213109 | 63 | 238 | 1.0 | 7.0 | 0.00 | 0.00 | 0.00 | 76 | 1022.1 |
| 20260901212543 | 63 | 237 | 2.0 | 7.0 | 0.00 | 0.00 | 0.00 | 76 | 1022.2 |
| 20260901212044 | 63 | 241 | 3.0 | 9.0 | 0.00 | 0.00 | 0.00 | 76 | 1022.3 |
| 20260901211558 | 63 | 255 | 3.0 | 9.0 | 0.00 | 0.00 | 0.00 | 76 | 1022.4 |
| 20260901211043 | 63 | 233 | 2.0 | 6.0 | 0.00 | 0.00 | 0.00 | 75 | 1022.3 |
| 20260901210543 | 64 | 249 | 2.0 | 8.0 | 0.00 | 0.00 | 0.00 | 75 | 1022.3 |
| 20260901205546 | 64 | 198 | 3.0 | 7.0 | 0.00 | 0.00 | 0.00 | 74 | 1022.3 |
| 20260901205046 | 64 | 258 | 2.0 | 5.0 | 0.00 | 0.00 | 0.00 | 74 | 1022.2 |
| 20260901204558 | 64 | 245 | 3.0 | 5.0 | 0.00 | 0.00 | 0.00 | 74 | 1022.2 |
| 20260901204045 | 64 | 243 | 2.0 | 5.0 | 0.00 | 0.00 | 0.00 | 74 | 1022.1 |
| 20260901203544 | 64 | 219 | 2.0 | 7.0 | 0.00 | 0.00 | 0.00 | 74 | 1022.2 |
| 20260901203105 | 64 | 211 | 2.0 | 7.0 | 0.00 | 0.00 | 0.00 | 73 | 1022.1 |
| 20260901202543 | 64 | 251 | 1.0 | 9.0 | 0.00 | 0.00 | 0.00 | 73 | 1021.8 |
| 20260901202043 | 64 | 249 | 3.0 | 9.0 | 0.00 | 0.00 | 0.00 | 73 | 1021.9 |
| 20260901201600 | 65 | 259 | 3.0 | 9.0 | 0.00 | 0.00 | 0.00 | 72 | 1021.9 |
| 20260901201043 | 65 | 243 | 2.0 | 8.0 | 0.00 | 0.00 | 0.00 | 72 | 1022.0 |
| 20260901200542 | 65 | 231 | 3.0 | 12.0 | 0.00 | 0.00 | 0.00 | 71 | 1021.9 |
| 20260901200107 | 65 | 211 | 4.0 | 12.0 | 0.00 | 0.00 | 0.00 | 71 | 1021.9 |
| 20260901195542 | 65 | 229 | 2.0 | 7.0 | 0.00 | 0.00 | 0.00 | 71 | 1021.8 |
| 20260901195043 | 65 | 241 | 3.0 | 9.0 | 0.00 | 0.00 | 0.00 | 70 | 1021.8 |
| 20260901194605 | 66 | 252 | 5.0 | 9.0 | 0.00 | 0.00 | 0.00 | 70 | 1021.7 |
| 20260901194043 | 66 | 268 | 3.0 | 9.0 | 0.00 | 0.00 | 0.00 | 70 | 1021.7 |
| 20260901193543 | 66 | 219 | 2.0 | 10.0 | 0.00 | 0.00 | 0.00 | 69 | 1021.6 |
| 20260901193116 | 66 | 259 | 4.0 | 10.0 | 0.00 | 0.00 | 0.00 | 69 | 1021.5 |
| 20260901192542 | 66 | 211 | 5.0 | 10.0 | 0.00 | 0.00 | 0.00 | 68 | 1021.4 |
| 20260901192042 | 66 | 217 | 3.0 | 9.0 | 0.00 | 0.00 | 0.00 | 66 | 1021.5 |
| 20260901191558 | 67 | 243 | 3.0 | 9.0 | 0.00 | 0.00 | 0.00 | 65 | 1021.5 |
| 20260901191042 | 67 | 243 | 3.0 | 8.0 | 0.00 | 0.00 | 0.00 | 63 | 1021.5 |
| 20260901190542 | 67 | 240 | 3.0 | 7.0 | 0.00 | 0.00 | 0.00 | 63 | 1021.4 |
| 20260901190114 | 67 | 259 | 2.0 | 7.0 | 0.00 | 0.00 | 0.00 | 62 | 1021.3 |
| 20260901185542 | 67 | 250 | 3.0 | 8.0 | 0.00 | 0.00 | 0.00 | 61 | 1021.4 |
| 20260901185042 | 67 | 258 | 3.0 | 8.0 | 0.00 | 0.00 | 0.00 | 61 | 1021.4 |
| 20260901184607 | 67 | 198 | 4.0 | 8.0 | 0.00 | 0.00 | 0.00 | 61 | 1021.4 |
| 20260901184047 | 68 | 254 | 1.0 | 5.0 | 0.00 | 0.00 | 0.00 | 61 | 1021.3 |
| 20260901183547 | 68 | 246 | 2.0 | 5.0 | 0.00 | 0.00 | 0.00 | 61 | 1021.2 |
| 20260901183105 | 68 | 236 | 2.0 | 5.0 | 0.00 | 0.00 | 0.00 | 60 | 1021.1 |
| 20260901182548 | 68 | 242 | 2.0 | 6.0 | 0.00 | 0.00 | 0.00 | 60 | 1021.2 |
| 20260901182045 | 68 | 248 | 2.0 | 7.0 | 0.00 | 0.00 | 0.00 | 59 | 1021.1 |
| 20260901181600 | 69 | 258 | 2.0 | 7.0 | 0.00 | 0.00 | 0.00 | 59 | 1021.1 |
| 20260901181044 | 69 | 238 | 3.0 | 7.0 | 0.00 | 0.00 | 0.00 | 59 | 1021.2 |
| 20260901180544 | 69 | 269 | 2.0 | 8.0 | 0.00 | 0.00 | 0.00 | 58 | 1021.5 |
| 20260901180106 | 69 | 259 | 4.0 | 8.0 | 0.00 | 0.00 | 0.00 | 58 | 1021.4 |
| 20260901175547 | 69 | 321 | 3.0 | 10.0 | 0.00 | 0.00 | 0.00 | 57 | 1021.3 |
| 20260901175043 | 70 | 261 | 5.0 | 10.0 | 0.00 | 0.00 | 0.00 | 57 | 1021.4 |
| 20260901174606 | 70 | 239 | 3.0 | 8.0 | 0.00 | 0.00 | 0.00 | 56 | 1021.3 |
| 20260901174043 | 70 | 188 | 4.0 | 12.0 | 0.00 | 0.00 | 0.00 | 56 | 1021.3 |
| 20260901173544 | 70 | 263 | 4.0 | 12.0 | 0.00 | 0.00 | 0.00 | 56 | 1021.2 |
| 20260901173105 | 70 | 250 | 3.0 | 9.0 | 0.00 | 0.00 | 0.00 | 56 | 1021.3 |
| 20260901172544 | 70 | 312 | 4.0 | 8.0 | 0.00 | 0.00 | 0.00 | 56 | 1021.3 |
| 20260901172043 | 70 | 278 | 3.0 | 8.0 | 0.00 | 0.00 | 0.00 | 56 | 1021.3 |
| 20260901171609 | 70 | 303 | 3.0 | 8.0 | 0.00 | 0.00 | 0.00 | 57 | 1021.3 |
| 20260901171044 | 71 | 239 | 4.0 | 8.0 | 0.00 | 0.00 | 0.00 | 56 | 1021.3 |
| 20260901170544 | 71 | 230 | 3.0 | 11.0 | 0.00 | 0.00 | 0.00 | 56 | 1021.3 |
| 20260901170158 | 71 | 243 | 4.0 | 11.0 | 0.00 | 0.00 | 0.00 | 56 | 1021.2 |
| 20260901165546 | 71 | 249 | 5.0 | 10.0 | 0.00 | 0.00 | 0.00 | 55 | 1021.3 |
| 20260901165046 | 71 | 279 | 5.0 | 9.0 | 0.00 | 0.00 | 0.00 | 55 | 1021.3 |
| 20260901164604 | 71 | 213 | 3.0 | 9.0 | 0.00 | 0.00 | 0.00 | 56 | 1021.2 |
| 20260901164044 | 70 | 236 | 4.0 | 12.0 | 0.00 | 0.00 | 0.00 | 56 | 1021.3 |
| 20260901163543 | 70 | 272 | 3.0 | 12.0 | 0.00 | 0.00 | 0.00 | 56 | 1021.2 |
| 20260901163107 | 70 | 245 | 6.0 | 13.0 | 0.00 | 0.00 | 0.00 | 55 | 1021.3 |
| 20260901162546 | 70 | 254 | 6.0 | 13.0 | 0.00 | 0.00 | 0.00 | 55 | 1021.3 |
| 20260901162043 | 70 | 246 | 6.0 | 13.0 | 0.00 | 0.00 | 0.00 | 56 | 1021.2 |
| 20260901161614 | 71 | 247 | 4.0 | 13.0 | 0.00 | 0.00 | 0.00 | 56 | 1021.4 |
| 20260901161044 | 71 | 231 | 5.0 | 12.0 | 0.00 | 0.00 | 0.00 | 57 | 1021.4 |
| 20260901160543 | 70 | 232 | 6.0 | 12.0 | 0.00 | 0.00 | 0.00 | 57 | 1021.4 |
| 20260901160106 | 70 | 271 | 4.0 | 11.0 | 0.00 | 0.00 | 0.00 | 58 | 1021.4 |
| 20260901155544 | 70 | 303 | 5.0 | 11.0 | 0.00 | 0.00 | 0.00 | 58 | 1021.4 |
| 20260901155044 | 70 | 290 | 6.0 | 11.0 | 0.00 | 0.00 | 0.00 | 57 | 1021.4 |
| 20260901154607 | 70 | 211 | 3.0 | 11.0 | 0.00 | 0.00 | 0.00 | 56 | 1021.5 |
| 20260901154044 | 70 | 263 | 2.0 | 13.0 | 0.00 | 0.00 | 0.00 | 56 | 1021.5 |
| 20260901153544 | 70 | 279 | 5.0 | 13.0 | 0.00 | 0.00 | 0.00 | 56 | 1021.5 |
| 20260901153124 | 70 | 236 | 3.0 | 8.0 | 0.00 | 0.00 | 0.00 | 56 | 1021.5 |
| 20260901152543 | 70 | 237 | 3.0 | 12.0 | 0.00 | 0.00 | 0.00 | 55 | 1021.5 |
| 20260901152043 | 70 | 286 | 5.0 | 12.0 | 0.00 | 0.00 | 0.00 | 55 | 1021.5 |
| 20260901151604 | 70 | 211 | 5.0 | 11.0 | 0.00 | 0.00 | 0.00 | 54 | 1021.6 |
| 20260901151044 | 70 | 228 | 4.0 | 11.0 | 0.00 | 0.00 | 0.00 | 56 | 1021.6 |
| 20260901150548 | 70 | 235 | 3.0 | 10.0 | 0.00 | 0.00 | 0.00 | 57 | 1021.5 |
| 20260901150059 | 70 | 281 | 3.0 | 10.0 | 0.00 | 0.00 | 0.00 | 56 | 1021.5 |
| 20260901145544 | 70 | 266 | 4.0 | 13.0 | 0.00 | 0.00 | 0.00 | 57 | 1021.5 |
| 20260901145043 | 70 | 237 | 6.0 | 13.0 | 0.00 | 0.00 | 0.00 | 57 | 1021.6 |
| 20260901144601 | 70 | 249 | 5.0 | 12.0 | 0.00 | 0.00 | 0.00 | 57 | 1021.7 |
| 20260901144045 | 70 | 207 | 4.0 | 12.0 | 0.00 | 0.00 | 0.00 | 57 | 1021.7 |
| 20260901143543 | 70 | 190 | 6.0 | 11.0 | 0.00 | 0.00 | 0.00 | 56 | 1021.7 |
| 20260901143103 | 70 | 238 | 6.0 | 12.0 | 0.00 | 0.00 | 0.00 | 57 | 1021.6 |